Location: ?????
(42.2640°N, 43.4211°E)
Time: 15:23:42
(UTC+00:00)

USA 229 - Pass Details

Date: 07 August 2020
Orbit: 975 x 1237 km, 63.4° (Epoch: 17 September)

Event Time Altitude Azimuth Distance (km) Brightness Sun altitude
Exits shadow 01:01:18 14° 242° (WSW) 2,470 5.0 -11.2°
Maximum altitude 01:06:42 49° 314° (NW) 1,303 4.1 -10.4°
Drops below altitude 10° 01:13:20 10° 28° (NNE) 2,920 7.1 -9.4°
Sets 01:16:11 0° 34° (NE) 3,920 8.0 -8.9°
